Regional Weather Roundup
Issued by NWS Upton, NY

Current Version | Previous Version | Text Only | Print | Product List | Glossary On
Versions: 1 2 3 4 5 6 7 8 9 10 11 12 13 14 15 16 17 18 19 20 21 22 23 24 25 26 27 28 29 30 31 32 33 34 35 36 37 38 39 40 41 42 43 44 45 46 47 48 49 50
000
ASUS41 KOKX 220905
RWROKX

REGIONAL WEATHER ROUNDUP
NATIONAL WEATHER SERVICE NEW YORK NY
500 AM EDT MON SEP 22 2014

NOTE: "FAIR" INDICATES FEW OR NO CLOUDS BELOW 12,000 FEET WITH NO
SIGNIFICANT WEATHER AND/OR OBSTRUCTIONS TO VISIBILITY.

NYZ071-072-176-178-NJZ106-104-221000-
NEW YORK CITY METRO AREA


CITY           SKY/WX    TMP DP  RH WIND       PRES   REMARKS
CENTRAL PARK   CLEAR     66  57  72 VRB6      29.73R
LAGUARDIA APRT PTCLDY    67  56  67 W12       29.70R
KENNEDY INTL   PTCLDY    67  57  70 W13       29.71R
NEWARK/LIBERTY PTCLDY    65  58  78 W10       29.71R
BRNX BOT. GARD   N/A     64  55  72 W6        29.71S
TETERBORO      CLEAR     64  56  75 W5        29.70R
$$

NYZ177-179-078>081-221000-
LONG ISLAND NEW YORK

CITY           SKY/WX    TMP DP  RH WIND       PRES   REMARKS
FARMINGDALE    CLEAR     65  58  78 W6        29.70R
ISLIP          CLEAR     64  57  78 W7        29.67R
SHIRLEY        CLEAR     64  59  83 W6        29.68R
WESTHAMPTON    CLEAR     64  59  83 W7        29.68R
MONTAUK POINT    N/A     69  65  86 W8        29.65R
$$

NYZ052-065-067-221000-
HUDSON VALLEY

CITY           SKY/WX    TMP DP  RH WIND       PRES   REMARKS
WHITE PLAINS   CLEAR     63  56  78 W7        29.69R
NEWBURGH         N/A    N/A N/A N/A W9        29.70R
MONTGOMERY     CLEAR     56  55  97 SW5       29.69R
POUGHKEEPSIE   CLEAR     62  56  80 SW8       29.68R
ALBANY         PTCLDY    60  51  72 SW3       29.65R
$$

NJZ001-105-106-008-010-013-015-019>022-104-221000-
NEW JERSEY

CITY           SKY/WX    TMP DP  RH WIND       PRES   REMARKS
NEWARK/LIBERTY PTCLDY    65  58  78 W10       29.71R
TETERBORO      CLEAR     64  56  75 W5        29.70R
CALDWELL       CLEAR     63  54  72 W5        29.72R
MORRISTOWN     CLEAR     63  54  72 CALM      29.72R
SOMERVILLE     CLEAR     63  53  70 NW6       29.72R
LINDEN         FAIR      69  57  66 W8        29.73R
SUSSEX         CLEAR     58  55  90 SW3       29.72R
ANDOVER          N/A     58  54  86 CALM      29.74R
TRENTON        CLEAR     64  52  64 W7        29.74R
MILLVILLE      LGT RAIN  62  55  77 W6        29.79R
ATLANTIC CITY  CLEAR     65  60  84 W8        29.77R
WRIGHTSTOWN    CLEAR     64  57  80 W7        29.73R
TOMS RIVER     CLEAR     63  59  88 CALM      29.75R
BELMAR         CLEAR     63  55  77 W6        29.74R
$$

PAZ047>061-062-071-221000-
EASTERN PENNSYLVANIA

CITY           SKY/WX    TMP DP  RH WIND       PRES   REMARKS
PHILADELPHIA   PTCLDY    65  56  72 W12       29.77R
ALLENTOWN      CLEAR     61  50  67 W6        29.75R
SCRANTON       CLOUDY    57  52  83 SW6       29.76R
$$

CTZ002-004>006-009-010-012-RIZ004-006-007-MAZ004-011-015-221000-
SOUTHERN NEW ENGLAND
 IN CT

CITY           SKY/WX    TMP DP  RH WIND       PRES   REMARKS
BRADLEY INTL   PTCLDY    60  55  83 W3        29.63R
HARTFORD       CLEAR     61  57  87 SW9       29.63R
DANBURY        CLEAR     59  54  83 SW6       29.69R
WTRBRY/OXFORD  CLEAR     61  55  82 W3        29.68R
BRIDGEPORT     MOCLDY    64  58  80 W8        29.67R
MERIDEN        CLEAR     62  58  86 W3        29.65R
NEW HAVEN      CLEAR     67  59  75 VRB5      29.66R
CHESTER        FAIR      64  64 100 W5        29.65R
GROTON         CLEAR     64  58  80 NW3       29.63R
WILLIMANTIC    CLEAR     62  59  90 MISG      29.63R

 IN RI

CITY           SKY/WX    TMP DP  RH WIND       PRES   REMARKS
PROVIDENCE     PTCLDY    66  63  90 W7        29.61R
BLOCK ISLAND   PTCLDY    66  64  94 W12       29.64R
WESTERLY       CLEAR     66  64  93 W5        29.64R

 IN MA

CITY           SKY/WX    TMP DP  RH WIND       PRES   REMARKS
BOSTON         PTCLDY    68  60  75 W14       29.56R
WORCESTER      PTCLDY    59  55  87 W9        29.62R
WESTFIELD      CLEAR     57  55  93 CALM      29.63R
PROVINCETOWN   CLEAR     66  63  88 SW10      29.57R
NANTUCKET      CLOUDY    67  66  97 SW14      29.62R FOG
$$

ANZ330-335-338-340-345-350-353-355-221000-
COASTAL MARINE OBSERVATIONS


STATION/POSITION TIME  SKY/WX   TEMP    WIND        PRES    VSBY  WAVE
                                AIR SEA DIR/SP/G                  HT/PER
                 (UTC)          (F)     (DEG/KT/KT) (MB)    (MI)  (FT/S)
NY HARB ENTRANCE 0900            70 70  290/ 19/ 23 1006.0          4/ 8
4S FIRE IS       0900               69                N/A           4/ 8
20S FIRE ISLAND  0900            70 69  310/ 14/ 17 1005.3          5/ 8
23SW MTP         0900                                 N/A           5/ 8
HUDSON CANYON    0900            71 70  280/ 17/ 21 1005.0          9/ 9
EXECUTION ROCKS  0900            67 70  280/ 10/ 14   N/A
WESTERN LI SOUND 0900            67     260/ 10/ 12   N/A           0
CENTRAL LI SOUND 0800            68 70  280/ 14/ 17   N/A           2/ 3
EASTERN LI SOUND 0800            69 68  270/ 10/ 14   N/A
ROBBINS REEF     0900            67     280/ 11/ 13 1004.8
$$


>>>>>>>>>>>>>>>>>>>>>>>>>>>> KEY <<<<<<<<<<<<<<<<<<<<<<<<<<<
>                                                          <
>     SKY/WX - SKY CONDITION/PRESENT WEATHER               <
>     TMP    - TEMPERATURE IN FAHRENHEIT                   <
>     DP     - DEWPOINT IN FAHRENHEIT                      <
>     RH     - RELATIVE HUMIDITY IN PERCENT                <
>     WIND   - DIRECTION AND SPEED IN MPH                  <
>     PRES   - MEAN SEA LEVEL PRESSURE IN INCHES OF HG     <
>     WCI    - WIND CHILL INDEX                            <
>     VSB    - VISIBILITY IN MILES                         <
>     HX     - HEAT INDEX                                  <
>     TC     - TEMPERATURE IN CELSIUS                      <
>     VRB    - VARIABLE WIND DIRECTION                     <
>                                                          <
>>>>>>>>>>>>>>>>>>>>>>>>>>>> KEY <<<<<<<<<<<<<<<<<<<<<<<<<<<





USA.gov is the U.S. government's official web portal to all federal, state and local government web resources and services.